Wind_Speed
28 28 22 24 29 31 34 33 35 32 32 35 45 61 68 77 83 85 84 80 70 69 70 30 54 59 59 57 56 58 51 44 42 47 48 47 43 44 43 40 41 41 38 40
27 23 24 28 26 27 28 30 30 34 32 40 43 45 44 61 85 87 86 82 78 73 78 67 53 59 56 57 55 48 51 50 43 46 43 50 48 46 45 45 43 41 42 43
26 24 31 32 30 33 32 33 29 29 25 42 46 50 45 60 79 86 91 86 79 76 72 71 63 56 58 55 52 52 49 46 51 44 39 35 46 49 47 43 45 44 45 44
28 31 32 32 31 32 38 31 32 27 27 36 41 50 46 48 73 85 87 87 81 80 72 70 65 60 55 58 52 52 52 46 43 47 43 38 34 48 47 46 50 49 48 46
45 42 32 27 22 23 31 32 29 34 34 33 37 51 47 41 60 82 89 85 81 77 72 73 67 64 55 56 57 52 51 50 42 40 42 39 43 37 49 50 51 48 48 48
50 23 20 23 22 20 25 27 27 27 28 35 23 39 51 43 49 73 87 85 84 77 72 71 66 65 56 52 53 55 54 53 51 43 37 40 44 41 37 47 50 49 48 48
29 29 26 22 17 18 15 16 17 24 28 32 24 34 43 38 40 54 79 87 83 78 74 68 65 63 56 54 55 51 54 52 49 47 46 43 42 45 44 48 52 48 46 48
37 30 27 24 16 17 13 8 15 20 27 28 24 24 24 25 29 40 67 80 80 76 70 65 62 57 55 45 49 47 49 48 47 44 43 42 41 41 42 49 47 41 44 49
30 29 25 30 22 14 10 3 8 16 20 16 8 6 3 14 29 38 59 77 76 73 67 61 58 57 53 48 46 46 45 43 39 40 39 40 43 39 37 39 38 43 48 50
29 27 23 21 18 14 8 9 5 10 11 16 17 15 12 6 28 35 50 63 66 65 61 55 54 53 52 47 44 44 45 41 36 35 29 30 29 30 39 41 44 45 47 48
39 28 21 21 15 14 14 20 20 15 8 9 21 7 14 14 28 35 41 48 51 57 56 51 52 51 48 42 43 44 43 41 39 34 31 35 35 35 38 46 45 43 46 45
45 29 27 26 16 11 13 11 17 25 18 17 21 24 14 12 18 23 42 50 49 52 53 50 50 51 49 41 40 40 40 41 40 41 39 37 37 41 46 40 44 54 48 48
45 35 23 20 19 14 15 19 20 21 21 15 11 11 11 13 18 23 29 34 39 45 45 47 46 47 47 43 37 37 38 39 36 37 36 38 39 43 48 46 42 48 51 53
42 31 25 23 23 22 22 18 13 15 16 16 16 21 18 8 19 28 34 34 35 36 36 42 44 46 48 46 41 37 38 41 39 34 30 33 35 44 48 47 45 50 51 52
40 20 17 20 16 19 22 19 15 13 8 7 10 12 16 14 16 30 32 33 31 31 34 38 41 42 44 45 45 42 40 42 41 38 38 43 48 53 51 48 46 51 52 56
29 17 13 13 11 14 13 14 13 11 8 3 3 7 15 12 15 34 33 34 32 31 32 35 36 39 41 43 43 40 39 39 42 36 48 42 44 48 48 55 52 58 61 57
29 22 11 15 17 19 19 22 17 18 18 19 20 21 15 11 16 31 31 29 26 25 26 27 33 34 35 38 35 33 36 38 40 42 42 52 51 51 49 58 59 62 57 56
35 19 21 23 23 28 28 27 26 24 21 28 28 27 25 19 21 18 23 19 18 16 19 21 21 21 25 31 31 31 31 37 38 43 49 52 54 56 57 53 52 49 53 54
32 29 32 35 33 25 19 32 40 42 36 43 36 31 27 26 25 22 15 16 15 12 11 14 19 23 20 29 30 33 32 33 40 44 48 58 61 42 38 35 37 32 31 31
25 33 44 52 55 56 49 52 54 48 48 46 40 29 28 24 21 22 15 13 19 23 24 19 21 31 30 27 32 37 39 40 44 50 39 30 23 22 21 22 15 21 25 28
27 35 38 44 49 48 49 54 57 63 59 57 52 48 40 19 29 34 34 29 28 29 29 24 17 15 20 22 24 26 27 26 20 16 12 15 15 17 20 24 29 32 35 38
30 34 38 44 47 46 44 43 58 58 50 45 43 42 40 42 40 35 31 30 27 24 22 20 20 15 11 10 9 5 1 3 7 12 15 17 23 29 30 32 35 36 38 40
34 39 40 40 46 38 35 38 47 45 40 38 37 36 35 31 29 26 20 18 18 16 15 12 14 8 6 9 16 18 18 19 21 23 26 28 29 30 32 34 36 38 41 44
31 27 33 36 37 32 29 30 32 30 28 27 26 24 23 23 23 23 24 24 23 21 20 19 17 17 18 18 18 18 20 21 22 24 26 28 30 33 36 39 42 44 46 48
25 24 23 25 26 26 27 25 27 26 26 27 26 26 24 22 23 23 23 23 23 23 22 20 19 19 18 19 20 21 22 24 26 28 31 33 36 38 40 42 44 47 50 53
22 21 19 21 20 21 23 22 23 21 21 21 21 22 21 21 22 22 22 23 22 22 22 21 21 21 21 22 24 25 28 30 32 35 36 38 40 43 46 49 51 54 57 59
Wind_Direction
309 315 314 289 276 275 275 267 263 256 257 254 243 231 230 225 219 223 223 219 218 216 211 197 222 220 221 224 228 234 233 225 230 234 234 234 234 238 240 243 246 250 253 255
331 333 305 299 294 283 274 275 268 262 248 251 251 250 248 232 219 216 221 220 217 213 216 219 219 221 220 222 227 232 233 240 239 235 240 234 235 236 239 242 245 250 254 258
326 307 298 297 290 282 272 271 277 283 262 249 250 247 244 231 222 214 220 216 216 216 216 217 218 219 222 222 227 227 230 235 240 245 240 249 242 236 240 245 251 253 254 257
335 321 309 290 278 278 279 266 264 273 276 260 250 257 244 240 224 217 215 218 215 213 214 218 217 218 222 220 223 224 229 234 239 243 244 254 251 242 239 242 246 250 254 258
346 335 312 292 285 265 279 268 262 251 264 269 247 255 241 237 233 217 210 215 216 217 213 215 216 216 218 219 222 225 228 233 239 243 240 248 248 252 243 240 248 252 257 261
346 343 308 295 283 255 265 271 273 241 247 260 279 259 255 233 236 220 210 210 215 215 219 217 216 216 215 218 222 224 228 231 235 240 246 254 253 250 251 246 244 249 255 259
2 354 343 324 293 264 273 267 264 236 248 274 290 266 255 236 230 227 213 208 214 213 215 215 216 221 218 219 222 225 229 232 239 240 248 255 255 252 251 254 242 247 253 259
358 6 7 4 315 285 300 259 244 244 261 283 282 288 278 247 221 222 215 209 212 214 214 215 216 219 222 224 230 230 233 235 240 245 252 255 260 256 256 252 241 249 255 258
7 8 9 8 2 16 10 56 216 271 279 295 282 18 345 219 196 205 211 208 208 213 211 214 215 218 220 219 225 229 234 236 240 246 255 255 260 263 245 238 240 249 257 259
1 7 8 11 27 49 39 8 295 273 280 301 330 59 55 188 183 183 203 208 208 214 213 210 213 217 218 219 221 228 228 232 234 242 240 243 260 276 242 242 249 253 257 261
10 358 5 4 8 30 28 352 339 320 313 350 16 68 117 175 167 172 191 202 206 211 215 209 213 217 218 219 218 224 226 232 231 239 242 246 252 263 270 249 244 252 256 263
9 2 3 5 7 354 331 298 323 337 339 338 14 50 109 124 154 170 186 196 202 207 212 210 212 215 218 220 223 224 228 234 235 239 246 251 253 260 262 263 260 251 251 258
8 359 356 7 10 337 328 346 348 21 31 26 7 67 91 126 155 162 179 192 196 204 207 213 215 217 220 224 225 226 230 234 236 243 250 253 258 260 263 268 271 261 256 257
5 347 1 357 11 359 353 344 349 16 28 41 47 63 112 133 173 162 162 172 184 189 198 208 215 219 222 224 227 229 230 232 235 241 249 251 255 255 264 262 269 265 262 263
360 351 338 351 6 5 354 343 337 320 360 352 69 128 130 119 155 158 158 164 173 182 195 204 212 216 220 224 228 231 232 231 234 241 247 257 247 242 251 246 257 262 260 259
7 2 12 26 2 355 360 10 7 15 12 15 104 155 140 139 150 162 161 165 169 180 191 203 211 217 219 223 227 231 232 231 232 239 245 263 253 256 261 258 255 254 261 251
9 18 42 61 39 52 63 49 45 53 50 80 108 132 115 104 156 172 170 170 177 188 195 202 209 216 220 224 226 232 231 235 235 244 246 252 258 257 258 255 258 252 254 251
18 48 56 50 53 52 48 58 61 62 89 109 110 117 109 120 140 173 173 166 174 177 188 196 201 200 205 228 230 235 232 238 240 241 249 260 256 258 253 262 256 253 253 258
27 55 62 68 63 68 81 83 74 77 92 105 112 107 117 113 130 152 150 169 176 175 192 206 201 214 235 227 214 233 236 237 242 259 251 254 257 266 259 254 249 242 238 238
48 67 77 83 78 74 79 80 79 78 81 84 93 88 95 125 161 152 144 141 176 206 213 208 224 220 218 221 229 243 252 252 251 252 258 249 231 229 237 240 264 283 293 302
66 75 79 81 81 81 83 86 89 85 85 87 87 92 100 120 111 109 104 114 118 122 126 156 161 195 200 223 220 218 226 232 220 223 229 247 287 304 316 318 318 317 317 314
65 81 82 80 82 81 85 89 87 90 93 95 91 86 81 84 86 86 80 76 78 81 83 85 100 113 119 113 115 121 158 311 313 335 331 316 318 324 320 316 312 307 304 301
70 76 80 77 76 70 74 78 84 92 92 90 89 86 80 81 93 88 87 75 76 70 65 67 57 50 30 15 9 7 353 348 336 328 321 318 313 309 306 304 302 300 299 298
50 66 67 65 63 65 71 73 77 79 82 86 85 82 75 67 61 55 47 40 36 28 23 23 15 3 357 350 343 337 328 321 316 316 312 308 306 303 301 300 299 298 298 298
62 65 63 58 61 58 59 67 59 58 60 57 54 51 46 38 34 27 22 18 14 11 6 358 351 349 344 336 331 325 320 317 315 310 307 304 303 302 301 301 300 299 298 297
69 59 59 59 60 56 50 46 42 43 43 39 35 28 23 19 14 8 4 360 355 350 348 347 343 337 331 327 321 316 314 311 310 308 307 307 306 304 303 302 301 301 301 301
Height
5538 5532 5530 5528 5526 5524 5524 5524 5523 5528 5534 5533 5534 5536 5540 5553 5570 5585 5601 5616 5634 5654 5657 5661 5679 5689 5698 5706 5714 5719 5725 5732 5737 5743 5747 5751 5757 5760 5765 5767 5769 5772 5775 5773
5534 5529 5524 5522 5521 5518 5516 5514 5515 5518 5524 5521 5522 5522 5527 5537 5553 5570 5582 5601 5617 5635 5647 5657 5669 5681 5688 5697 5705 5712 5719 5725 5731 5736 5739 5743 5748 5752 5756 5759 5762 5766 5766 5766
5532 5526 5519 5515 5513 5510 5509 5508 5510 5509 5512 5510 5510 5511 5518 5528 5539 5558 5570 5585 5605 5622 5636 5650 5662 5673 5681 5689 5697 5706 5711 5717 5723 5727 5730 5735 5740 5745 5748 5755 5755 5759 5758 5759
5526 5521 5513 5507 5503 5502 5494 5502 5500 5502 5503 5501 5507 5495 5508 5517 5526 5541 5562 5578 5596 5607 5627 5639 5652 5664 5673 5681 5689 5697 5705 5711 5715 5720 5725 5730 5734 5736 5741 5743 5743 5747 5749 5751
5522 5506 5498 5494 5493 5491 5489 5489 5489 5492 5495 5494 5495 5488 5496 5508 5513 5530 5551 5571 5588 5605 5618 5628 5642 5656 5665 5672 5682 5691 5698 5704 5708 5713 5717 5723 5726 5727 5730 5733 5736 5740 5742 5743
5512 5501 5491 5487 5485 5484 5483 5482 5483 5485 5489 5484 5489 5486 5484 5498 5508 5521 5541 5561 5578 5595 5609 5623 5636 5644 5659 5666 5674 5682 5689 5696 5701 5705 5711 5717 5718 5719 5723 5724 5728 5730 5732 5733
5515 5501 5492 5485 5482 5482 5481 5480 5480 5482 5482 5478 5485 5479 5476 5493 5503 5513 5531 5549 5564 5583 5597 5614 5628 5639 5654 5660 5667 5675 5682 5689 5695 5700 5705 5709 5709 5710 5714 5714 5716 5720 5722 5724
5509 5503 5496 5487 5482 5481 5481 5479 5480 5480 5479 5479 5480 5471 5476 5488 5499 5509 5525 5543 5561 5577 5596 5611 5625 5636 5646 5659 5664 5673 5679 5684 5689 5695 5698 5700 5702 5703 5703 5703 5708 5711 5713 5714
5514 5508 5500 5492 5485 5484 5483 5482 5482 5480 5480 5476 5474 5473 5475 5481 5492 5504 5522 5540 5558 5574 5591 5608 5621 5630 5641 5651 5658 5666 5673 5678 5683 5686 5689 5693 5694 5695 5694 5696 5700 5702 5704 5706
5520 5512 5504 5499 5493 5490 5487 5486 5486 5483 5479 5475 5474 5477 5480 5485 5492 5504 5522 5541 5560 5573 5588 5604 5616 5625 5635 5643 5651 5658 5664 5670 5676 5678 5682 5685 5688 5689 5688 5689 5692 5694 5697 5697
5522 5515 5510 5502 5498 5493 5490 5488 5484 5483 5482 5477 5478 5485 5490 5490 5493 5505 5523 5540 5556 5570 5585 5601 5612 5622 5630 5638 5645 5651 5656 5663 5669 5673 5676 5679 5681 5682 5680 5682 5684 5686 5687 5688
5526 5519 5512 5507 5502 5498 5495 5490 5487 5483 5484 5483 5481 5486 5493 5500 5506 5512 5520 5535 5553 5570 5582 5595 5606 5616 5623 5632 5639 5646 5650 5657 5662 5666 5669 5672 5674 5674 5674 5674 5675 5675 5676 5677
5527 5523 5518 5512 5508 5502 5498 5493 5490 5491 5489 5489 5489 5492 5503 5507 5511 5517 5529 5542 5556 5569 5581 5593 5603 5612 5620 5628 5634 5639 5645 5651 5655 5659 5662 5664 5665 5666 5667 5667 5667 5667 5666 5666
5533 5525 5519 5515 5509 5505 5499 5495 5494 5495 5496 5496 5494 5497 5507 5512 5515 5521 5531 5544 5557 5568 5579 5591 5599 5607 5614 5621 5627 5633 5639 5644 5648 5652 5653 5655 5656 5658 5657 5658 5658 5658 5656 5656
5536 5528 5524 5519 5514 5508 5502 5498 5496 5496 5498 5500 5504 5506 5510 5516 5520 5527 5536 5546 5557 5567 5577 5586 5595 5602 5609 5616 5621 5627 5632 5636 5641 5644 5645 5644 5638 5646 5648 5648 5647 5648 5644 5644
5539 5533 5528 5523 5518 5513 5508 5502 5500 5499 5499 5501 5505 5511 5517 5522 5527 5533 5542 5551 5560 5568 5576 5584 5592 5599 5605 5610 5616 5622 5626 5631 5633 5637 5640 5637 5639 5639 5640 5640 5640 5636 5635 5632
5543 5534 5532 5527 5521 5515 5512 5507 5505 5504 5504 5505 5510 5516 5524 5529 5535 5541 5549 5557 5564 5571 5577 5584 5591 5596 5601 5607 5613 5618 5622 5627 5630 5630 5631 5632 5628 5629 5627 5626 5625 5623 5622 5620
5549 5541 5536 5530 5523 5516 5516 5516 5513 5509 5511 5515 5519 5525 5531 5538 5546 5552 5559 5567 5573 5577 5581 5587 5593 5597 5603 5605 5609 5613 5617 5619 5620 5622 5623 5620 5619 5618 5614 5614 5613 5609 5607 5606
5558 5552 5543 5534 5528 5529 5530 5529 5524 5522 5523 5527 5532 5537 5541 5545 5554 5562 5568 5573 5578 5582 5585 5589 5592 5595 5599 5603 5607 5609 5610 5611 5613 5613 5611 5610 5609 5603 5603 5600 5601 5600 5598 5596
5569 5563 5557 5548 5546 5541 5540 5539 5536 5534 5535 5540 5546 5551 5554 5557 5562 5567 5572 5575 5577 5581 5585 5586 5591 5593 5596 5599 5602 5603 5601 5604 5605 5606 5604 5601 5600 5599 5598 5596 5594 5592 5589 5586
5580 5575 5569 5565 5561 5560 5561 5559 5558 5546 5559 5561 5566 5567 5569 5567 5570 5575 5580 5583 5583 5584 5585 5587 5590 5594 5596 5597 5598 5599 5598 5601 5601 5600 5599 5597 5596 5594 5592 5589 5587 5583 5579 5575
5589 5585 5582 5578 5576 5578 5578 5581 5561 5565 5574 5577 5579 5580 5580 5579 5582 5586 5589 5590 5591 5592 5592 5592 5593 5596 5598 5597 5597 5598 5598 5596 5595 5592 5592 5591 5590 5587 5585 5582 5580 5577 5573 5570
5601 5598 5594 5593 5587 5593 5593 5589 5582 5585 5589 5590 5591 5590 5591 5593 5594 5594 5595 5595 5595 5595 5595 5595 5593 5595 5596 5594 5592 5591 5592 5591 5590 5588 5587 5585 5583 5580 5578 5576 5571 5568 5564 5559
5609 5607 5604 5602 5600 5603 5603 5601 5600 5601 5602 5601 5601 5601 5601 5602 5601 5601 5600 5600 5600 5600 5599 5598 5598 5597 5595 5594 5593 5593 5592 5591 5589 5585 5583 5580 5577 5574 5570 5566 5562 5558 5553 5547
5614 5614 5612 5610 5609 5610 5609 5609 5609 5609 5608 5607 5606 5606 5606 5606 5604 5603 5601 5601 5600 5599 5599 5599 5598 5596 5595 5595 5593 5591 5589 5586 5582 5580 5577 5573 5569 5565 5560 5555 5550 5545 5540 5534
5618 5618 5619 5617 5616 5615 5614 5614 5614 5614 5613 5613 5612 5612 5611 5609 5608 5607 5605 5604 5603 5601 5599 5597 5596 5595 5593 5590 5588 5586 5582 5579 5575 5571 5567 5562 5558 5553 5547 5542 5538 5533 5527 5519